TimeEDT,TemperatureF,Dew PointF,Humidity,Sea Level PressureIn,VisibilityMPH,Wind Direction,Wind SpeedMPH,Gust SpeedMPH,PrecipitationIn,Events,Conditions,WindDirDegrees,DateUTC
12:53 AM,37.9,37.0,97,30.20,0.2,SE,3.5,-,N/A,Fog,Fog,130,2012-10-08 04:53:00
1:53 AM,37.0,36.0,96,30.21,0.2,Calm,Calm,-,N/A,Fog,Fog,0,2012-10-08 05:53:00
2:53 AM,36.0,36.0,100,30.23,0.2,Calm,Calm,-,N/A,Fog,Fog,0,2012-10-08 06:53:00
3:53 AM,35.1,34.0,96,30.23,0.2,Calm,Calm,-,N/A,Fog,Fog,0,2012-10-08 07:53:00
4:53 AM,35.1,34.0,96,30.24,0.2,Calm,Calm,-,N/A,Fog,Fog,0,2012-10-08 08:53:00
5:53 AM,34.0,34.0,100,30.25,0.2,Calm,Calm,-,N/A,Fog,Fog,0,2012-10-08 09:53:00
6:53 AM,35.1,35.1,100,30.26,0.2,ESE,3.5,-,N/A,Fog,Fog,110,2012-10-08 10:53:00
7:53 AM,35.1,34.0,96,30.27,0.2,Calm,Calm,-,N/A,Fog,Fog,0,2012-10-08 11:53:00
8:53 AM,36.0,36.0,100,30.27,0.2,ESE,3.5,-,N/A,Fog,Fog,110,2012-10-08 12:53:00
9:53 AM,37.9,37.9,100,30.29,0.2,SE,3.5,-,N/A,Fog,Fog,140,2012-10-08 13:53:00
10:53 AM,42.1,39.0,89,30.28,0.5,Calm,Calm,-,N/A,Fog,Fog,0,2012-10-08 14:53:00
11:02 AM,42.8,39.2,87,30.26,0.8,Calm,Calm,-,N/A,,Clear,0,2012-10-08 15:02:00
11:21 AM,42.8,39.2,87,30.26,1.2,Calm,Calm,-,N/A,,Clear,0,2012-10-08 15:21:00
11:27 AM,44.6,37.4,76,30.26,3.0,Calm,Calm,-,N/A,,Haze,0,2012-10-08 15:27:00
11:53 AM,45.0,36.0,71,30.28,10.0,South,3.5,-,N/A,,Clear,170,2012-10-08 15:53:00
12:53 PM,46.9,35.1,63,30.28,10.0,Calm,Calm,-,N/A,,Clear,0,2012-10-08 16:53:00
1:53 PM,48.9,37.0,64,30.25,10.0,Variable,4.6,-,N/A,,Mostly Cloudy,0,2012-10-08 17:53:00
2:53 PM,50.0,34.0,54,30.24,10.0,Variable,4.6,-,N/A,,Mostly Cloudy,0,2012-10-08 18:53:00
3:53 PM,51.1,34.0,52,30.22,10.0,South,4.6,-,N/A,,Mostly Cloudy,170,2012-10-08 19:53:00
4:53 PM,51.1,34.0,52,30.22,10.0,South,4.6,-,N/A,,Mostly Cloudy,180,2012-10-08 20:53:00
5:53 PM,50.0,34.0,54,30.22,10.0,South,3.5,-,N/A,,Mostly Cloudy,180,2012-10-08 21:53:00
6:53 PM,46.9,35.1,63,30.21,10.0,SSE,3.5,-,N/A,,Partly Cloudy,150,2012-10-08 22:53:00
7:53 PM,42.1,36.0,79,30.22,10.0,Calm,Calm,-,N/A,,Clear,0,2012-10-08 23:53:00
8:53 PM,37.9,35.1,89,30.22,10.0,SE,3.5,-,N/A,,Clear,130,2012-10-09 00:53:00
9:53 PM,37.0,34.0,89,30.23,9.0,Calm,Calm,-,N/A,,Clear,0,2012-10-09 01:53:00
10:53 PM,36.0,34.0,93,30.23,7.0,Calm,Calm,-,N/A,,Clear,0,2012-10-09 02:53:00
11:53 PM,34.0,33.1,96,30.23,5.0,Calm,Calm,-,N/A,,Clear,0,2012-10-09 03:53:00